Regional Weather Roundup
Issued by NWS

Home | Current Version | Previous Version | Text Only | Print | Product List | Glossary Off
Versions: 1 2 3 4 5 6 7 8 9 10 11 12 13 14 15 16 17 18 19 20 21 22 23 24 25 26 27 28 29 30 31 32 33 34 35 36 37 38 39 40 41 42 43 44 45 46 47 48 49 50

000
ASUS43 KIND 031209
RWRIN

WEATHER ROUNDUP FOR INDIANA
NATIONAL WEATHER SERVICE INDIANAPOLIS IN
800 AM EDT FRI JUL 03 2015

NOTE: "FAIR" INDICATES FEW OR NO CLOUDS BELOW 12,000 FEET WITH NO
SIGNIFICANT WEATHER AND/OR OBSTRUCTIONS TO VISIBILITY.

* - STATION DOES NOT REPORT WEATHER SUCH AS PRECIPITATION OR FOG.

+ - STATION NOT QUALITY CONTROLLED BY THE NATIONAL WEATHER SERVICE.
    USE DATA WITH CAUTION...ESPECIALLY DEWPOINT AND RELATIVE
    HUMIDITY OBSERVATIONS.

INZ001>003-010>013-019-020-031300-
NORTHWEST INDIANA

CITY           SKY/WX    TMP DP  RH WIND       PRES   REMARKS
GARY /AIRPORT/ PTSUNNY   63  57  82 E5        29.98R
KNOX *+        PTSUNNY   57  57 100 CALM      29.96R
LA PORTE +     PTSUNNY   60  59  96 E3        29.99R
6HR MIN TEMP:  58; 6HR MAX TEMP:  60;

MICHIGAN CITY+ PTSUNNY   59  55  88 CALM      29.98R
MONTICELLO +   PTSUNNY   62  56  82 NE5       29.94R
6HR MIN TEMP:  61; 6HR MAX TEMP:  65;

RENSSELAER +   PTSUNNY   61  59  94 NE6       29.96R
VALPARAISO     PTSUNNY   60  56  86 E6        29.98R
6HR MIN TEMP:  56; 6HR MAX TEMP:  60;


$$

LMZ046-743>745-031300-
SOUTHERN LAKE MICHIGAN

STATION/POSITION TIME  TEMP    WIND        PRES    WAVE
                       AIR SEA DIR/SP/G            HT
                 (UTC) (F)     (DEG/KT/KT) (MB)    (FT)
BURNS HARBOR     1200   64     110/  9/ 15 1015.2S
MICHIGAN CITY    1200   61      90/  7/ 11   N/A
5NW MICH CITY    1200   62 63  120/  8/ 12   N/A     1

$$

INZ004-005-014>016-021>024-031300-
NORTH CENTRAL INDIANA

CITY           SKY/WX    TMP DP  RH WIND       PRES   REMARKS
ELKHART        SUNNY     59  55  88 E6        29.99R
GOSHEN         PTSUNNY   61  56  83 E6        29.98R
6HR MIN TEMP:  56; 6HR MAX TEMP:  61;

LOGANSPORT +   CLOUDY    61  50  67 E8        29.96R
PERU/GRISSOM   MOSUNNY   62  53  72 E7        29.95R
6HR MIN TEMP:  60; 6HR MAX TEMP:  63;

ROCHESTER +    PTSUNNY   61  59  94 NE5       29.97R
SOUTH BEND     PTSUNNY   61  56  83 E3        29.99R
6HR MIN TEMP:  58; 6HR MAX TEMP:  61;

WARSAW +         N/A     59  55  88 E5        29.98R

$$

INZ006>009-017-018-025>027-031300-
NORTHEAST INDIANA

CITY           SKY/WX    TMP DP  RH WIND       PRES   REMARKS
ANGOLA *+        N/A     57  54  88 E6        29.99R
AUBURN +       MOSUNNY   59  55  88 E7        30.00R
FORT WAYNE     PTSUNNY   60  56  86 NE9       29.98R
6HR MIN TEMP:  58; 6HR MAX TEMP:  60;

HUNTINGTON +   PTSUNNY   59  55  87 E6        29.96S
6HR MIN TEMP:  56; 6HR MAX TEMP:  60;


$$

INZ028-029-035-036-043>045-051>053-031300-
WEST CENTRAL INDIANA

CITY           SKY/WX    TMP DP  RH WIND       PRES   REMARKS
CRAWFORDSVL +  PTSUNNY   62  55  77 NE5       29.92R
6HR MIN TEMP:  61; 6HR MAX TEMP:  65;

GREENCASTLE +  CLOUDY    64  57  77 NE5       29.91S
LAFAYETTE      CLOUDY    62  56  80 NE10      29.93R
6HR MIN TEMP:  61; 6HR MAX TEMP:  65;

TERRE HAUTE    CLOUDY    68  63  84 NE7       29.89S
6HR MIN TEMP:  68; 6HR MAX TEMP:  71;


$$

INZ030>032-037>040-046>048-054>057-064-065-031300-
CENTRAL INDIANA

CITY           SKY/WX    TMP DP  RH WIND       PRES   REMARKS
CP ATTERBURY + CLOUDY    64  61  88 NE3       29.91R
FISHERS *+     CLOUDY    61  59  94 CALM      29.93R
FRANKFORT +    PTSUNNY   63  56  78 NE7       29.95R
6HR MIN TEMP:  63; 6HR MAX TEMP:  66;

GREENWOOD *+   CLOUDY    63  59  88 NE5       29.92R
INDIANAPOLIS   CLOUDY    63  58  83 NE8       29.90R
6HR MIN TEMP:  63; 6HR MAX TEMP:  70; 6HR PCP:  0.07;

-EAGLE CREEK   CLOUDY    62  59  90 NE5       29.91S
6HR MIN TEMP:  61; 6HR MAX TEMP:  69; 6HR PCP:  0.46;

KOKOMO *+      PTSUNNY   61  54  77 E7        29.95R
6HR MIN TEMP:  61; 6HR MAX TEMP:  63;

MARION +       PTSUNNY   60  53  77 E7        29.96R
MT COMFORT *+  PTSUNNY   63 N/A N/A E7        29.92S
SHELBYVILLE    CLOUDY    65  60  84 NE6       29.90R
6HR MIN TEMP:  65; 6HR MAX TEMP:  71; 6HR PCP:  0.18;

ZIONSVILLE +   PTSUNNY   63  56  79 NE6       29.94R

$$

INZ033-034-041-042-049-050-058-059-031300-
EAST CENTRAL INDIANA

CITY           SKY/WX    TMP DP  RH WIND       PRES   REMARKS
MUNCIE         PTSUNNY   62  55  77 E8        29.94R
6HR MIN TEMP:  61; 6HR MAX TEMP:  64;


$$

INZ060-061-067>069-081>083-085>088-031300-
SOUTHWEST INDIANA

CITY           SKY/WX    TMP DP  RH WIND       PRES   REMARKS
EVANSVILLE     CLOUDY    71  69  93 N5        29.86S FOG
6HR MIN TEMP:  70; 6HR MAX TEMP:  74;

HUNTINGBURG *+ CLOUDY    70  66  88 NE6       29.86S
6HR MIN TEMP:  68; 6HR MAX TEMP:  72;

WASHINGTON +   CLOUDY    69  65  88 CALM      29.87S FOG
6HR MIN TEMP:  68; 6HR MAX TEMP:  70; 6HR PCP:  0.01;


$$

INZ062-063-066-070>080-084-089>092-031300-
SOUTH CENTRAL AND SOUTHEAST INDIANA

CITY           SKY/WX    TMP DP  RH WIND       PRES   REMARKS
BLOOMINGTON    CLOUDY    68  63  84 E6        29.88S
6HR MIN TEMP:  68; 6HR MAX TEMP:  71;

MADISON *+     CLOUDY    68  64  88 E6        29.90S
NORTH VERNON + CLOUDY    68  68 100 E5        29.89S
SEYMOUR +      CLOUDY    70  66  88 NE6       29.88R

$$



USA.gov is the U.S. government's official web portal to all federal, state and local government web resources and services.